This is the latest recevied weather packets stored in our database for station/object KB1FFS. If no packets are shown the sender has not sent any weather packets the latest 10 day(s).
| Time | Temp. | Humidity | Pressure | Rain* | Wind** | Luminosity | Snow |
|---|---|---|---|---|---|---|---|
| 1788035492 | 40° C | 30% | 1016.1 hPa | 0 mm | - | 670 W/m² | - |
| 1788035186 | 40.56° C | 29% | 1016.1 hPa | 0 mm | - | 621 W/m² | - |
| 1788034883 | 40.56° C | 31% | 1016.2 hPa | 0 mm | - | 712 W/m² | - |
| 1788034578 | 40° C | 30% | 1016 hPa | 0 mm | - | 715 W/m² | - |
| 1788034274 | 40.56° C | 30% | 1016.2 hPa | 0 mm | - | 712 W/m² | - |
| 1788033974 | 40° C | 31% | 1016.2 hPa | 0 mm | - | 723 W/m² | - |
| 1788033670 | 40° C | 30% | 1016.3 hPa | 0 mm | - | 738 W/m² | - |
| 1788033368 | 40.56° C | 31% | 1016.5 hPa | 0 mm | - | 730 W/m² | - |
| 1788033063 | 40° C | 30% | 1016.7 hPa | 0 mm | - | 740 W/m² | - |
| 1788032763 | 40° C | 30% | 1016.6 hPa | 0 mm | - | 749 W/m² | - |
| 1788032458 | 40° C | 34% | 1016.7 hPa | 0 mm | - | 746 W/m² | - |
| 1788032154 | 39.44° C | 32% | 1017 hPa | 0 mm | - | 746 W/m² | - |
| 1788031851 | 40° C | 32% | 1017 hPa | 0 mm | - | 768 W/m² | - |
| 1788031550 | 40° C | 32% | 1017.2 hPa | 0 mm | - | 762 W/m² | - |
| 1788031250 | 39.44° C | 31% | 1017.2 hPa | 0 mm | - | 760 W/m² | - |
| 1788030949 | 39.44° C | 33% | 1017.3 hPa | 0 mm | - | 778 W/m² | - |
| 1788030649 | 39.44° C | 32% | 1017.4 hPa | 0 mm | - | 781 W/m² | - |
| 1788030343 | 40° C | 32% | 1017.3 hPa | 0 mm | - | 783 W/m² | - |
| 1788030040 | 40° C | 32% | 1017.7 hPa | 0 mm | - | 786 W/m² | - |
| 1788029734 | 40° C | 31% | 1017.7 hPa | 0 mm | - | 785 W/m² | - |
| 1788029429 | 39.44° C | 32% | 1017.7 hPa | 0 mm | - | 783 W/m² | - |
| 1788029128 | 39.44° C | 33% | 1017.8 hPa | 0 mm | - | 784 W/m² | - |
| 1788028827 | 39.44° C | 36% | 1017.6 hPa | 0 mm | - | 787 W/m² | - |
| 1788028522 | 38.89° C | 36% | 1017.8 hPa | 0 mm | - | 808 W/m² | - |
| 1788028218 | 38.89° C | 34% | 1017.9 hPa | 0 mm | - | 790 W/m² | - |
* Rain latest hour (hover to see other rain measurements)
** Current wind speed in m/s (hover to see current wind gust speed)